Clinton-Sherman, OK

5:29 PM CDT on September 24, 2017 (GMT -0500)
Clinton-Sherman

Weather History for KCSM - November, 2012

Change the Weather History Date:

Monday, November 12, 2012

  Actual Average Record
Temperature  
Mean Temperature 40 °F -  
Max Temperature 53 °F 58 °F 81 °F (1999)
Min Temperature 26 °F 40 °F 19 °F (2014)
Degree Days  
Heating Degree Days 26    
Moisture  
Dew Point 23 °F    
Average Humidity 58    
Maximum Humidity 81    
Minimum Humidity 27    
Precipitation  
Precipitation 0.00 in - - ()
Sea Level Pressure  
Sea Level Pressure 30.46 in    
Wind  
Wind Speed 7 mph (SW)    
Max Wind Speed 12 mph    
Max Gust Speed -    
Visibility 10 miles    
Events      
Averages and records for this station are not official NWS values.
T = Trace of Precipitation, MM = Missing Value Source: NWS Daily Summary

Daily Weather History Graph

Daily Weather History Graph

Search for Another Location

Airport or City:

Trip Planner

Search our weather history database for the weather conditions in past years. The results will help you decide how hot, cold, wet, or windy it might be!

Date:

Astronomy

Nov. 12, 2012 Rise Set
Actual Time 7:09 AM CST 5:32 PM CST
Civil Twilight 6:42 AM CST 5:59 PM CST
Nautical Twilight 6:12 AM CST 6:29 PM CST
Astronomical Twilight 5:41 AM CST 6:59 PM CST
Moon 5:38 AM CST (11/12) 4:37 PM CST (11/12)
Length of Visible Light 11h 16m
Length of Day
10h 22m
Waning Crescent, 2% of the Moon is Illuminated
Nov 12
Waning Crescent
Nov 13
New
Nov 20
First Quarter
Nov 28
Full
Dec 6
Last Quarter

Hourly Weather History & Observations

Time (CST) Temp. Windchill Dew Point Humidity Pressure Visibility Wind Dir Wind Speed Gust Speed Precip Events Conditions
12:53 AM 28.9 °F 25.2 °F 21.9 °F 75% 30.36 in 10.0 mi NW 3.5 mph - N/A   Clear
1:53 AM 27.0 °F 20.5 °F 21.9 °F 81% 30.38 in 10.0 mi NW 5.8 mph - N/A   Clear
2:53 AM 28.0 °F 20.0 °F 23.0 °F 81% 30.40 in 10.0 mi WSW 8.1 mph - N/A   Clear
3:53 AM 28.0 °F 21.7 °F 21.0 °F 75% 30.41 in 10.0 mi NW 5.8 mph - N/A   Clear
4:53 AM 27.0 °F 21.6 °F 19.9 °F 75% 30.44 in 10.0 mi WNW 4.6 mph - N/A   Clear
5:53 AM 28.0 °F 20.8 °F 21.0 °F 75% 30.46 in 10.0 mi WSW 6.9 mph - N/A   Clear
6:53 AM 26.1 °F 19.4 °F 19.9 °F 78% 30.47 in 10.0 mi WSW 5.8 mph - N/A   Clear
7:53 AM 30.9 °F 24.3 °F 21.9 °F 69% 30.48 in 10.0 mi West 6.9 mph - N/A   Clear
8:53 AM 37.0 °F 33.3 °F 25.0 °F 62% 30.51 in 10.0 mi WSW 4.6 mph - N/A   Clear
9:53 AM 41.0 °F 35.8 °F 23.0 °F 49% 30.52 in 10.0 mi WSW 8.1 mph - N/A   Clear
10:53 AM 45.0 °F 41.2 °F 21.0 °F 39% 30.52 in 10.0 mi WSW 6.9 mph - N/A   Clear
11:53 AM 48.0 °F - 19.0 °F 32% 30.51 in 10.0 mi Variable 6.9 mph - N/A   Clear
12:53 PM 50.0 °F - 18.0 °F 28% 30.48 in 10.0 mi SW 9.2 mph - N/A   Clear
2:53 PM 52.0 °F - 19.0 °F 27% 30.44 in 10.0 mi West 6.9 mph - N/A   Clear
3:53 PM 53.1 °F - 21.0 °F 29% 30.44 in 10.0 mi SSW 10.4 mph - N/A   Clear
4:53 PM 50.0 °F - 23.0 °F 35% 30.44 in 10.0 mi South 10.4 mph - N/A   Clear
5:53 PM 41.0 °F 34.7 °F 26.1 °F 55% 30.45 in 10.0 mi SSE 10.4 mph - N/A   Clear
6:53 PM 39.9 °F 33.9 °F 27.0 °F 60% 30.46 in 10.0 mi South 9.2 mph - N/A   Clear
7:53 PM 39.0 °F 31.8 °F 27.0 °F 62% 30.47 in 10.0 mi South 11.5 mph - N/A   Clear
8:53 PM 37.0 °F 29.8 °F 26.1 °F 65% 30.48 in 10.0 mi South 10.4 mph - N/A   Clear
9:53 PM 37.9 °F 30.9 °F 25.0 °F 60% 30.49 in 10.0 mi South 10.4 mph - N/A   Clear
10:53 PM 37.9 °F 30.9 °F 24.1 °F 57% 30.48 in 10.0 mi South 10.4 mph - N/A   Clear
11:53 PM 34.0 °F 31.0 °F 24.1 °F 67% 30.48 in 10.0 mi South 3.5 mph - N/A   Clear